Weather in Lamego

Portugal     41°05′53″N   7°48′24″W
temp.,
°C
wind,
m/s
gust,
m/s
humid.,
%
clouds,
%
prec.,
mm/h
press.,
hPa
HPBL,
m
7 march, sun
sun700:00+6s117762 0.0 101922
03:00+6sse11770 0.0 101922
06:00+5se11810 0.0 101922
09:00+9e11680 0.0 1019143
12:00+13wnw13550 0.0 10171391
15:00+12w336595 0.3 1015999
18:00+10wnw247948 0.4 1015162
21:00+6w12910 0.0 101635
8 march, mon
mon800:00+4sw11910 0.0 101629
03:00+4sse00910 0.0 101527
06:00+5ene129317 0.0 1015111
09:00+6ne368495 0.1 1017524
12:00+8ne557185 0.1 10171035
15:00+9ne456379 0.1 10151225
18:00+7ne366969 0.1 1015378
21:00+4nne12791 0.0 101830
9 march, tue
tue900:00+3ne367912 0.0 1020235
03:00+1ene26830 0.0 1020249
06:000nne23870 0.0 1021104
09:00+4ne38700 0.0 1022559
12:00+8ne35590 0.0 1021761
15:00+10ne33502 0.0 1020923
18:00+8nne116116 0.0 102081
21:00+4wnw116255 0.0 102326
10 march, wed
wed1000:00+5w116164 0.0 102325
03:00+3wsw006647 0.0 102422
06:00+3wsw017363 0.0 102422
09:00+8nnw116167 0.0 1025185
12:00+14nw114458 0.0 1025647
15:00+14wnw335076 0.0 1024960
18:00+10wnw227172 0.0 102473
21:00+6w2285100 0.0 102737
11 march, thu
thu1100:00+6wsw2286100 0.0 102732
03:00+5wsw1288100 0.0 102628
06:00+5wsw2294100 0.0 102630
09:00+9wsw2486100 0.0 1027402
12:00+11wsw3579100 0.1 1026690
15:00+12wsw3577100 0.1 1025777
18:00+11w2388100 0.4 1025339
21:00+8sw2295100 0.1 102659